This is the latest recevied weather packets stored in our database for station/object NI4CE-11. If no packets are shown the sender has not sent any weather packets the latest 10 day(s).
| Time | Temp. | Humidity | Pressure | Rain* | Wind** | Luminosity | Snow |
|---|---|---|---|---|---|---|---|
| 1777834198 | 23.89° C | 100% | 1017.2 hPa | 0 mm | - | - | - |
| 1777833898 | 25.56° C | 100% | 1017.2 hPa | 0 mm | - | - | - |
| 1777833871 | 23.89° C | 100% | 1017.3 hPa | 0 mm | - | - | - |
| 1777833598 | 23.89° C | 100% | 1017.3 hPa | 0 mm | - | - | - |
| 1777833298 | 24.44° C | 100% | 1017.4 hPa | 0 mm | - | - | - |
| 1777833197 | 23.89° C | 100% | 1017.5 hPa | 0 mm | - | - | - |
| 1777832998 | 23.89° C | 100% | 1017.5 hPa | 0 mm | - | - | - |
| 1777832698 | 23.89° C | 100% | 1017.6 hPa | 0 mm | - | - | - |
| 1777832456 | 23.89° C | 100% | 1017.5 hPa | 0 mm | - | - | - |
| 1777832398 | 23.89° C | 100% | 1017.5 hPa | 0 mm | - | - | - |
| 1777832098 | 23.89° C | 100% | 1017.5 hPa | 0 mm | - | - | - |
| 1777831798 | 24.44° C | 100% | 1017.6 hPa | 0 mm | - | - | - |
| 1777831499 | 23.89° C | 100% | 1017.6 hPa | 0 mm | - | - | - |
| 1777831291 | 24.44° C | 100% | 1017.8 hPa | 0 mm | - | - | - |
| 1777831240 | 23.89° C | 100% | 1017.7 hPa | 0 mm | - | - | - |
| 1777831199 | 23.89° C | 100% | 1017.7 hPa | 0 mm | - | - | - |
| 1777830898 | 24.44° C | 100% | 1017.8 hPa | 0 mm | - | - | - |
| 1777830711 | 23.33° C | 100% | 1017.9 hPa | 0 mm | - | - | - |
| 1777830598 | 23.33° C | 100% | 1017.9 hPa | 0 mm | - | - | - |
| 1777830299 | 23.33° C | 100% | 1018 hPa | 0 mm | - | - | - |
| 1777829999 | 23.89° C | 100% | 1018 hPa | 0 mm | - | - | - |
| 1777829699 | 23.33° C | 100% | 1018 hPa | 0 mm | - | - | - |
| 1777829399 | 22.78° C | 100% | 1018 hPa | 0 mm | - | - | - |
| 1777829119 | 22.22° C | 100% | 1018.2 hPa | 0 mm | - | - | - |
| 1777829099 | 23.33° C | 100% | 1018.1 hPa | 0 mm | - | - | - |
* Rain latest hour (hover to see other rain measurements)
** Current wind speed in m/s (hover to see current wind gust speed)